Weather History for Bismarck, ND

Change the Weather History Date:

Monday, May 26, 2014

  Actual Average Record
Temperature  
Mean Temperature 71 °F 59 °F  
Max Temperature 80 °F 71 °F 92 °F (1934)
Min Temperature 61 °F 46 °F 25 °F (1984)
Degree Days  
Heating Degree Days 0 7  
Month to date heating degree days 329 278  
Since 1 July heating degree days 9055 8433  
Cooling Degree Days 6 1  
Month to date cooling degree days 18 8  
Year to date cooling degree days 18 9  
Growing Degree Days 20 (Base 50)    
Moisture  
Dew Point 61 °F    
Average Humidity 76    
Maximum Humidity 100    
Minimum Humidity 51    
Precipitation  
Precipitation 0.00 in 0.09 in 1.18 in (1899)
Month to date precipitation 0.21 1.95  
Year to date precipitation 3.55 5.02  
Snow  
Snow 0.00 in 0.00 in 4.00 in (1932)
Month to date snowfall T 0.4  
Since 1 July snowfall 40.5 51.2  
Snow Depth 0.00 in    
Sea Level Pressure  
Sea Level Pressure 29.93 in    
Wind  
Wind Speed 9 mph (East)    
Max Wind Speed 14 mph    
Max Gust Speed 17 mph    
Visibility 8 miles    
Events      
T = Trace of Precipitation, MM = Missing Value Source: NWS Daily Summary

Daily Weather History Graph

Daily Weather History Graph

Search for Another Location

Airport:

Trip Planner

Search our weather history database for the weather conditions in past years. The results will help you decide how hot, cold, wet, or windy it might be!

Date:

Astronomy

May. 26, 2014 Rise Set
Actual Time 5:57 AM CDT 9:23 PM CDT
Civil Twilight 5:19 AM CDT 10:01 PM CDT
Nautical Twilight 4:30 AM CDT 10:51 PM CDT
Astronomical Twilight 3:25 AM CDT 11:56 PM CDT
Moon 4:50 AM CDT (5/26) 7:20 PM CDT (5/26)
Length of Visible Light 16h 41m
Length of Day
15h 26m
Waning Crescent, 5% of the Moon is Illuminated
May 26
Waning Crescent
May 28
New
Jun 5
First Quarter
Jun 12
Full
Jun 19
Last Quarter

Hourly Weather History & Observations

Time (CDT) Temp. Heat Index Dew Point Humidity Pressure Visibility Wind Dir Wind Speed Gust Speed Precip Events Conditions
12:52 AM 68.0 °F - 61.0 °F 78% 29.90 in 10.0 mi NE 10.4 mph - N/A   Clear
1:52 AM 64.9 °F - 61.0 °F 87% 29.91 in 10.0 mi NE 9.2 mph - N/A   Clear
2:52 AM 63.0 °F - 61.0 °F 93% 29.90 in 10.0 mi NE 8.1 mph - N/A   Clear
3:52 AM 62.6 °F - 60.8 °F 94% 29.93 in 7.0 mi ENE 6.9 mph - N/A   Partly Cloudy
4:10 AM 63.0 °F - 61.0 °F 93% 29.93 in 7.0 mi ENE 8.1 mph - N/A   Mostly Cloudy
4:52 AM 63.0 °F - 61.0 °F 93% 29.91 in 8.0 mi Variable 3.5 mph - N/A   Overcast
5:52 AM 63.0 °F - 61.0 °F 93% 29.91 in 9.0 mi ENE 9.2 mph - N/A   Overcast
6:52 AM 62.1 °F - 60.1 °F 93% 29.94 in 4.0 mi ENE 9.2 mph - N/A   Overcast
7:00 AM 62.1 °F - 60.1 °F 93% 29.96 in 2.5 mi ENE 10.4 mph - N/A   Overcast
7:13 AM 62.1 °F - 60.1 °F 93% 29.96 in 1.5 mi ENE 11.5 mph - N/A   Overcast
7:52 AM 61.0 °F - 60.1 °F 97% 29.94 in 1.2 mi East 10.4 mph - N/A   Overcast
8:13 AM 62.1 °F - 61.0 °F 96% 29.97 in 2.5 mi East 11.5 mph - N/A   Overcast
8:18 AM 62.1 °F - 61.0 °F 96% 29.97 in 3.0 mi East 10.4 mph - N/A   Overcast
8:52 AM 63.0 °F - 61.0 °F 93% 29.96 in 8.0 mi East 10.4 mph - N/A   Overcast
9:52 AM 63.0 °F - 60.1 °F 90% 29.96 in 9.0 mi East 9.2 mph - N/A   Overcast
10:52 AM 64.0 °F - 60.1 °F 87% 29.97 in 10.0 mi East 9.2 mph - N/A   Overcast
11:52 AM 64.4 °F - 60.8 °F 88% 29.99 in 10.0 mi ENE 9.2 mph - N/A   Overcast
12:52 PM 64.9 °F - 60.1 °F 84% 29.97 in 10.0 mi East 12.7 mph - N/A   Overcast
1:11 PM 66.0 °F - 60.1 °F 81% 29.98 in 10.0 mi ESE 10.4 mph - N/A   Overcast
1:52 PM 69.8 °F - 60.8 °F 73% 29.96 in 10.0 mi East 10.4 mph - N/A   Overcast
2:01 PM 70.0 °F - 61.0 °F 73% 29.96 in 10.0 mi SE 8.1 mph - N/A   Overcast
2:29 PM 71.1 °F - 62.1 °F 73% 29.95 in 10.0 mi SE 9.2 mph - N/A   Scattered Clouds
2:52 PM 73.0 °F - 62.1 °F 68% 29.93 in 10.0 mi ESE 9.2 mph - N/A   Clear
3:52 PM 75.9 °F - 63.0 °F 64% 29.91 in 10.0 mi SE 9.2 mph - N/A   Scattered Clouds
5:52 PM 78.8 °F - 60.8 °F 54% 29.89 in 10.0 mi South 3.5 mph - N/A   Partly Cloudy
6:52 PM 80.1 °F 81.1 °F 61.0 °F 52% 29.86 in 10.0 mi SSE 10.4 mph - N/A   Partly Cloudy
7:52 PM 78.1 °F - 61.0 °F 56% 29.86 in 10.0 mi SSE 9.2 mph - N/A   Clear
8:52 PM 70.0 °F - 62.1 °F 76% 29.88 in 10.0 mi SE 8.1 mph - N/A   Clear
9:52 PM 64.4 °F - 59.0 °F 83% 29.90 in 10.0 mi SE 5.8 mph - N/A   Clear
10:52 PM 64.0 °F - 59.0 °F 84% 29.90 in 10.0 mi SE 5.8 mph - N/A   Clear
11:52 PM 64.0 °F - 60.1 °F 87% 29.91 in 10.0 mi ESE 5.8 mph - N/A   Clear